Погода в Моршанске

Погода в Моршанске : погода сейчас, прогноз погоды и архив. Всё, что Вы хотите узнать о погоде в Моршанске!

Поиск расширенной информации на нашем сайте:

Другие новости

Новости СМИ2

Главная страница сайта

Новости сайта

03.07.2017

Напоминаем, что на нашем специализированном сайте Метеоцентр.Азия вы можете получить высокодетализированные автоматические прогнозы погоды по пунктам России, СНГ и мира в авиационном формате (включающие направление и скорость ветра, видимость, явления погоды, количество и форму облачности, нижнюю и верхнюю границу облачности).

Рекомендуем: http://pro-biker.com.ua/ смотреть уроки вождения мотоцикла.

Погода в Моршанске - сегодня

Время (UTC), дата Ветер
(°,м/с) 
Видим.   Явления Облачность Т
(°С)
Тd
(°С)
f(%) Тe
(°С)
Pmin
(гПа)
dP
(гПа)
Po
(мм)
O2
(г/м3)
Тmin Tmax R s Состояние
почвы
06 15.08.17 050 (СВ) 4000 м  слаб. ливневой дождь  9/9 600 м кучево-дожд. 
[Cb cap]
+18.5 +16.9 90 +32  1019.6  1.5  752  280           
09 15.08.17 070 (В) 10 км  {ливн. осадки}  9/3 600 м средняя, верхняя 
[Cu med, cong|Ac cuf|Ci fib]
+24 +17.6 67 +37  1019.8  0.5  753  275           
12 15.08.17 360 (С) 10 км  гроза без осадков{ливн. осадки}  9/8 600 м кучево-дожд., верхняя 
[Cb cap|Ci sp]
+23.7 +18 70 +38  1020.2  0.4  753  275           
15 15.08.17 020 (С) 10 км    3/1 600 м кучево-дожд., верхняя 
[Cb calv|Ci sp]
+23.8 +16.1 62 +34  1020.8  0.6  753  276    +25.9     
18 15.08.17 020 (С) 10 км  {гроза}  ясно 
+19.7 +16.4 81 +32  1022.6  1.6  755  280           
21 15.08.17 010 (С) 4000 м  дымка  ясно 
+17.4 +16.2 93 +29  1023.4  0.6  755  282           
00 16.08.17 020 (С) 4000 м  дымка  ясно 
+16.8 +15.2 90 +27  1023.9  0.4  755  283           
03 16.08.17 020 (С) 4000 м  дымка  10/0 средняя 
[As op]
+15.4 +14.5 94 +24  1024.5  0.6  756  285  +15.3         
06 16.08.17 030 (СВ) 4000 м  дымка  10/8 600 м кучево-дожд., средняя 
[Cb cap|As op]
+17.5 +15.7 89 +28  1025.4  756  283           
09 16.08.17 050 (СВ) 10 км    9/9 600 м кучево-дожд. 
[Cb cap]
+19.8 +16.3 80 +32  1025.8  0.5  757  281           
12 16.08.17 050 (СВ) 10 км    5/0 кучево-дожд. 
[Cb calv]
+22.2 +15.5 66 +32  1025.5  -0.2  757  279           
15 16.08.17 040 (СВ) 10 км    1/1 600 м 
[Sc diur, vesp]
+22.4 +15.6 65 +32  1025.1  -0.4  756  278    +23.9       
18 16.08.17 040 (СВ) 4000 м  дымка  ясно 
+16.8 +15.1 90 +27  1025.7  0.3  757  284           
21 16.08.17 010 (С) 4000 м  дымка  ясно 
+15.1 +14 93 +23  1026  0.2  757  286           
00 17.08.17 020 (С) 4000 м  дымка  ясно 
+14.1 +13 93 +20  1026.2  0.1  757  287           
03 17.08.17 010 (С) 4000 м  дымка  9/8 600 м кучево-дожд., верхняя 
[Cb calv|Ci fib]
+14.9 +13.8 93 +22  1026.7  0.6  757  287  +13.7         
06 17.08.17 060 (СВ) 10 км    6/0 средняя, верхняя 
[Ac trans|Ci fib]
+21 +15.3 70 +30  1026.7  0.3  758  280           
09 17.08.17 070 (В) 10 км    6/6 600 м 
[Cu med, cong]
+24.7 +14.9 54 +33  1026  -0.5  757  277           
12 17.08.17 080 (В) 10 км    6/6 600 м 
[Cu med, cong]
+26.2 +13 44 +31  1025.1  -0.8  757  276           
15 17.08.17 040 (СВ) 10 км    ясно 
+24.2 +12.6 48 +29  1024.6  -0.6  756  277    +26.2       
18 17.08.17 050 (СВ) 10 км    ясно 
+18.8 +14.9 78 +28  1024.8  756  282           
21 17.08.17 040 (СВ) 10 км    9/9 600 м 
[Sc]
+16.6 +13.7 83 +24  1025  756  284           
00 18.08.17 тихо ()   4000 м  дымка  ясно 
+14.8 +13 89 +20  1025.2  756  286           
03 18.08.17 360 (С) 4000 м  дымка  8/8 600 м 
[Sc]
+12.7 +11.7 94 +17  1026.2  0.9  757  289  +12.1         
06 18.08.17 120 (ЮВ) 10 км    4/4 600 м 
[Cu hum]
+21.2 +13 59 +26  1026  0.3  757  281           
Время (UTC), дата Ветер
(°,м/с) 
Видим.   Явления Облачность Т
(°С)
Тd
(°С)
f(%) Тe
(°С)
Pmin
(гПа)
dP
(гПа)
Po
(мм)
O2
(г/м3)
Тmin Tmax R s Состояние
почвы

Для получения пояснительной информации подведите курсор к названию столбца.

ПОГОДА в Моршанске - архив

Всё, что Вы хотите узнать о погоде в Моршанске - удобно и подробно!

Выберите нужную дату (начиная с 1 января 2015* года) и нажмите кнопку "Найти".
Будут отображены архивные сводки погоды по пункту Моршанск, начиная с указанной даты.


Отображать данные в формате CSV (для использования в таблицах Excel)


Внимание! Наш архив погоды предназначен исключительно для личного некоммерческого использования в познавательных целях. Если Вам необходимы официальные справки о состоянии погоды (для производственных, юридических, коммерческих и т.п. целей), обращайтесь в органы Росгидромета.

*Примечание: данная дата относится к архиву по метеостанциям СССР (Россия, СНГ, Балтия).
Архив по метеостанциям Зарубежной Европы и Азии (кроме Китая) хранится 10 дней, по другим регионам земного шара (Китай, Африка, Америка, Австралия, Океания) - 1 день.

Моршанск - район местоположения метеостанции


Название, широта, долгота, высота метеостанции:
Моршанск 53.4°ш. 41.8°д. 142 м над ур. моря [Российская Федерация]

Дополнительная информация

В oтличие oт бoльшинства пoгoдных сайтoв мы публикуем пoдрoбную метеoинфoрмацию в детальнoм прoфессиoнальнoм фoрмате.

Характеристики температуры и влажнoсти вoздуха измеряются на высoте 2 м в тени вдали oт зданий и деревьев.
Скoрoсть ветра измеряется на высoте 10 м (на урoвне рoста челoвека скoрoсть ветра ниже в 1.5-2 раза). Если метеoстанция нахoдится в гoрoде или в лесу, тo скoрoсть ветра занижена на 2-4 м/с пo сравнению с oткрытым местoм. Скoрoсть ветра над акватoриями крупных рек и oзёр, а также на вершинах хoлмoв на 2-5 м/с выше, чем в oбычных услoвиях.
Атмoсфернoе давление в разных тoчках местнoсти мoжет значительнo oтличаться oт давления на метеoстанции, в зависимoсти oт услoвий рельефа (при пoдъёме на 10 м давление пoнижается примернo на 1 мм рт.ст.).